Weather in Valkumey

Russia / Chukotka Autonomous Okrug     69°36′05″N   170°11′02″E
temp.,
°C
wind,
m/s
gust,
m/s
humid.,
%
clouds,
%
prec.,
mm/h
press.,
hPa
HPBL,
m
10 may, mon
mon1000:00−16ese2210091 0.0 10199
03:00−18ese2210096 0.0 10209
06:00−17sse2210092 0.0 102018
09:00−13sse229593 0.0 1020103
12:00−9sse229088 0.0 1020174
15:00−6se218384 0.0 1020298
18:00−5se118319 0.0 1020230
21:00−11ese11965 0.0 102010
11 may, tue
tue1100:00−15ese2210094 0.0 10219
03:00−17se2210095 0.0 10219
06:00−17se229980 0.0 102224
09:00−12sse229376 0.0 1022103
12:00−9sse228713 0.0 1022154
15:00−6ese117618 0.0 1021287
18:00−4ne117870 0.0 1021285
21:00−10ne119334 0.0 102110
12 may, wed
wed1200:00−14e1110094 0.0 10229
03:00−16se2210092 0.0 10229
06:00−16se229982 0.0 102224
09:00−11sse229487 0.0 1022114
12:00−8sse118984 0.0 1022158
15:00−5sse118193 0.0 1021274
18:00−3se1180100 0.0 1021289
21:00−4sse1186100 0.0 102010
13 may, thu
thu1300:00−6se119098 0.0 102010
03:00−10ese229786 0.0 101910
06:00−9se2296100 0.0 101914
09:00−5sse2290100 0.0 1018120
12:00−3sse1184100 0.0 1018223
15:00−2ese1183100 0.0 1017257
18:00−2ese1194100 0.2 1017163
21:00−2se1197100 0.3 101634
14 may, fri
fri1400:00−3se229996 0.4 101617
03:00−2se239994 0.3 101546
06:000se479896 0.6 1015298
09:000se6990100 0.2 1014394
12:000sse6108589 0.2 1014380
15:00+1se6118422 0.0 1014318
18:00+1se610855 0.0 1013260
21:00−2ese59885 0.0 101385